TimeCEST,TemperatureF,Dew PointF,Humidity,Sea Level PressureIn,VisibilityMPH,Wind Direction,Wind SpeedMPH,Gust SpeedMPH,PrecipitationIn,Events,Conditions,WindDirDegrees,DateUTC
12:55 AM,41.0,41.0,100,30.18,0.0,WSW,3.5,-,N/A,Fog,Fog,240,2012-10-03 22:55:00
1:55 AM,41.0,41.0,100,30.18,0.2,Variable,2.3,-,N/A,Fog,Fog,0,2012-10-03 23:55:00
2:00 AM,41,40,97,,0,,2.3,,,Fog,Patches of Fog,,2012-10-04 00:00:00
2:55 AM,41.0,37.4,87,30.18,6.2,Calm,Calm,-,N/A,,Partly Cloudy,0,2012-10-04 00:55:00
3:55 AM,39.2,37.4,93,30.15,0.2,South,5.8,-,N/A,Fog,Fog,190,2012-10-04 01:55:00
4:55 AM,39.2,37.4,93,30.15,0.0,SSW,8.1,-,N/A,Fog,Fog,200,2012-10-04 02:55:00
5:00 AM,40,37,87,,0,SSW,8.1,,,Fog,Heavy Fog,200,2012-10-04 03:00:00
5:55 AM,39.2,39.2,100,30.12,0.0,SW,8.1,-,N/A,Fog,Fog,220,2012-10-04 03:55:00
6:55 AM,39.2,39.2,100,30.12,0.0,SSW,8.1,-,N/A,Fog,Fog,210,2012-10-04 04:55:00
7:55 AM,39.2,39.2,100,30.12,0.0,South,9.2,-,N/A,Fog,Fog,180,2012-10-04 05:55:00
8:00 AM,39,39,100,,0,South,9.2,,,Fog,Heavy Fog,180,2012-10-04 06:00:00
8:55 AM,39.2,39.2,100,30.12,0.0,SSW,13.8,-,N/A,Fog,Fog,200,2012-10-04 06:55:00
9:55 AM,41.0,41.0,100,30.12,0.0,SSW,8.1,-,N/A,Fog,Fog,200,2012-10-04 07:55:00
10:55 AM,41.0,41.0,100,30.12,0.0,SSW,10.4,-,N/A,Fog,Fog,210,2012-10-04 08:55:00
11:00 AM,41,41,99,,0,SSW,10.4,,,Fog,Heavy Fog,210,2012-10-04 09:00:00
11:55 AM,41.0,41.0,100,30.12,0.0,SSW,8.1,-,N/A,Fog,Fog,200,2012-10-04 09:55:00
12:55 PM,41.0,41.0,100,30.12,0.0,SSW,11.5,23.0,N/A,Fog,Fog,200,2012-10-04 10:55:00
1:55 PM,41.0,41.0,100,30.12,0.0,SSW,12.7,-,N/A,Fog,Fog,210,2012-10-04 11:55:00
2:00 PM,42,42,99,,0,SSW,12.7,,,Fog,Heavy Fog,210,2012-10-04 12:00:00
2:55 PM,42.8,42.8,100,30.09,0.0,SW,18.4,-,N/A,Fog,Fog,230,2012-10-04 12:55:00
3:55 PM,42.8,42.8,100,30.09,0.0,SW,19.6,31.1,N/A,Fog,Fog,220,2012-10-04 13:55:00
4:55 PM,42.8,42.8,100,30.09,0.0,SW,15.0,-,N/A,Fog,Fog,230,2012-10-04 14:55:00
5:00 PM,43,43,99,,0,SW,15.0,,,Fog,Heavy Fog,230,2012-10-04 15:00:00
5:55 PM,42.8,42.8,100,30.09,0.2,WSW,15.0,-,N/A,Fog,Fog,240,2012-10-04 15:55:00
6:55 PM,42.8,39.2,87,30.09,0.3,SW,13.8,-,N/A,Fog,Fog,220,2012-10-04 16:55:00
7:55 PM,42.8,41.0,93,30.09,0.0,South,9.2,-,N/A,Fog,Fog,190,2012-10-04 17:55:00
8:00 PM,42,42,98,,0,South,9.2,,,Fog,Heavy Fog,190,2012-10-04 18:00:00
8:55 PM,41.0,39.2,93,30.12,0.4,WSW,11.5,-,N/A,Fog,Fog,250,2012-10-04 18:55:00
9:55 PM,41.0,39.2,93,30.12,0.4,WSW,5.8,-,N/A,Fog,Fog,250,2012-10-04 19:55:00
10:55 PM,41.0,41.0,100,30.15,0.0,NNW,4.6,-,N/A,Fog,Fog,340,2012-10-04 20:55:00
11:00 PM,41,41,99,,0,NNW,4.6,,,Fog,Heavy Fog,340,2012-10-04 21:00:00
11:55 PM,41.0,39.2,93,30.15,0.4,NE,8.1,-,N/A,Fog,Fog,40,2012-10-04 21:55:00